Wind_Speed
46 46 47 47 47 48 49 48 48 49 50 49 49 49 49 50 50 50 50 50 50 50 51 51 51 51 51 51 51 51 51 52 52 50 50 50 50 50 49 50 49 49 48
46 47 47 47 48 48 47 48 48 48 49 50 50 50 50 50 50 50 50 51 51 51 51 52 52 53 54 53 53 53 53 53 53 52 51 51 51 51 51 50 50 50 49
45 46 46 47 47 47 47 47 48 48 49 50 50 50 51 51 51 51 51 52 52 53 53 53 53 54 54 55 55 54 54 55 54 54 53 53 52 53 53 52 51 51 51
43 44 45 45 46 46 47 48 49 49 49 50 51 51 51 52 52 53 53 53 54 54 54 54 54 54 55 55 55 55 55 55 55 55 54 53 53 53 53 53 53 52 52
41 42 43 44 44 45 46 47 48 49 50 50 51 51 52 53 53 53 54 54 54 55 55 55 55 55 55 55 56 56 56 56 56 56 55 54 54 54 54 54 54 53 53
39 41 41 43 44 45 46 47 49 49 50 50 51 51 52 52 53 53 54 54 54 55 56 56 56 57 56 56 56 56 57 57 56 56 56 55 55 55 55 55 54 54 53
38 38 40 41 43 45 46 47 49 49 50 49 50 50 51 52 53 53 54 54 55 55 57 57 58 57 57 57 57 57 57 56 57 57 57 56 56 55 56 55 55 54 54
36 37 39 40 41 43 45 47 47 48 49 49 49 50 51 52 53 54 54 55 55 56 56 56 57 57 57 57 57 57 57 57 57 57 57 57 56 56 55 55 55 55 55
35 37 38 39 40 41 43 44 46 47 48 49 50 51 51 52 52 52 52 53 54 55 55 55 56 57 57 57 56 56 57 57 57 58 58 57 57 56 55 54 54 54 54
35 36 37 39 40 41 42 43 44 46 46 47 48 49 50 51 51 51 51 51 52 53 54 54 54 54 55 55 55 55 56 57 57 58 58 57 57 56 55 55 54 54 54
34 35 36 37 38 39 40 42 43 44 45 45 46 47 48 49 50 50 50 50 50 50 50 51 51 52 53 53 54 54 54 55 55 56 56 56 56 56 55 55 55 54 54
34 34 34 35 36 36 38 39 40 42 43 43 44 45 46 46 47 47 48 48 49 49 49 49 49 50 50 50 51 52 52 53 54 55 55 55 55 55 55 55 55 55 55
33 33 34 35 35 35 36 36 37 39 40 42 43 44 44 45 46 46 46 47 47 47 47 47 47 47 48 48 48 49 49 50 51 52 52 53 54 54 54 54 54 54 54
32 32 32 32 33 33 33 34 36 37 38 39 40 41 43 44 44 44 45 44 45 45 45 46 46 46 47 48 48 48 49 48 49 50 50 51 52 52 52 53 53 53 53
30 30 30 30 30 31 32 33 33 35 36 37 38 39 40 41 42 43 44 44 44 44 44 45 46 46 46 47 47 48 48 48 48 48 48 49 50 50 51 51 52 52 52
29 29 29 30 30 30 31 32 33 34 34 35 36 37 38 39 40 41 42 42 42 43 43 44 45 45 46 46 46 46 47 47 48 47 48 48 48 49 49 50 50 51 51
28 28 29 30 30 31 31 32 32 33 34 34 35 36 37 38 39 40 40 40 41 41 41 42 43 44 44 44 45 45 46 46 47 47 47 47 47 47 47 48 49 49 49
28 29 29 30 30 31 32 32 33 33 34 34 34 35 36 36 37 38 39 40 40 40 40 41 42 43 43 43 43 44 44 45 45 45 45 45 45 45 46 46 47 47 48
29 30 30 30 31 31 32 32 33 33 33 33 33 34 34 35 37 38 38 39 39 40 40 41 41 41 41 42 42 42 43 43 43 43 43 43 44 44 44 45 45 46 46
30 31 31 31 32 32 32 31 31 31 32 32 33 33 34 35 36 37 38 38 39 39 39 39 39 40 40 40 40 40 40 41 41 42 42 43 43 44 44 45 45 45 46
30 31 32 32 32 32 32 31 31 31 31 31 32 32 33 33 34 35 35 36 37 38 38 37 37 37 37 38 38 39 39 39 39 40 40 41 42 43 43 44 45 45 46
29 29 29 29 29 29 29 30 30 30 30 31 31 31 31 31 31 32 32 33 34 35 35 35 35 35 36 36 37 37 38 38 38 38 39 40 41 42 43 44 45 46 46
28 28 27 27 27 28 28 28 28 28 28 29 29 29 29 29 30 30 30 31 32 32 33 33 34 35 35 35 36 36 37 37 38 39 39 39 40 41 42 43 44 45 45
28 28 28 27 27 27 27 27 27 27 27 27 28 28 28 28 28 29 29 30 31 31 32 32 33 33 33 33 34 35 36 37 38 38 39 39 40 40 41 42 43 44 45
28 28 28 27 27 26 26 26 26 27 27 28 28 28 29 29 29 29 30 30 31 31 31 31 32 32 32 33 33 34 35 36 37 38 38 38 39 39 40 41 41 41 42
28 28 27 27 27 27 27 27 27 27 28 28 28 29 29 29 30 30 30 31 31 31 31 31 31 32 32 33 33 34 35 36 37 38 38 38 39 39 39 40 40 40 40
Wind_Direction
246 248 249 249 249 249 249 249 249 247 246 247 247 248 248 249 250 251 252 252 253 253 253 253 254 256 257 257 258 259 261 262 262 263 263 264 264 265 267 267 267 268 269
249 250 250 251 251 250 250 250 250 249 248 248 249 249 250 251 251 252 252 252 253 254 255 255 256 256 257 258 259 260 260 262 262 263 263 264 264 265 266 267 267 268 269
250 251 251 251 251 250 250 251 251 249 249 250 251 251 251 252 252 252 253 253 254 254 255 256 256 257 257 258 258 259 260 262 263 263 263 264 265 266 266 266 267 268 269
251 251 252 252 251 250 251 252 252 251 251 251 252 252 252 252 253 253 254 254 255 255 256 256 256 257 258 259 258 259 261 262 263 263 263 264 265 265 266 266 267 267 269
252 252 254 253 253 252 252 252 252 252 252 252 253 253 253 253 254 254 255 256 256 256 255 255 256 257 258 259 259 260 261 262 263 263 264 265 264 265 266 266 266 267 268
255 255 254 254 253 253 253 253 253 253 253 253 253 254 254 254 255 255 256 256 256 256 256 256 257 257 258 259 259 260 262 262 262 263 263 263 264 265 266 266 266 267 268
257 257 256 256 255 254 255 255 254 253 253 254 254 255 254 255 255 256 256 257 256 256 257 257 257 258 259 259 260 261 261 261 262 262 263 263 264 265 265 265 266 267 268
260 260 258 258 258 258 257 257 255 254 254 254 254 255 255 256 257 257 257 258 257 257 257 257 257 258 259 260 260 260 261 261 262 262 262 262 264 264 265 265 266 267 267
262 262 261 260 260 260 260 258 257 256 256 256 255 255 256 257 258 258 258 258 258 257 257 258 258 258 259 260 260 261 261 262 262 262 262 262 263 264 264 265 265 266 267
264 264 264 263 261 261 260 259 257 257 257 256 256 256 256 257 258 259 258 258 258 257 257 258 259 259 259 260 262 262 262 261 261 262 262 262 263 262 263 264 265 266 267
266 266 265 265 263 262 261 259 258 257 256 256 256 257 257 257 256 257 258 259 259 259 258 259 259 259 260 261 261 262 262 262 262 262 262 263 263 263 263 263 264 265 266
268 268 268 267 265 263 262 261 259 258 256 256 256 256 256 256 256 257 258 259 260 260 259 260 260 260 260 261 261 261 261 261 261 262 262 262 263 263 263 264 264 266 267
270 271 269 268 266 264 263 262 260 259 258 257 256 256 256 256 256 257 258 260 260 262 262 261 260 260 260 261 260 260 261 262 262 262 262 261 262 262 263 263 264 266 268
272 271 271 269 267 266 264 264 263 261 261 259 258 257 256 256 256 256 258 259 260 261 261 261 260 261 261 261 261 262 262 262 262 262 261 261 261 261 262 263 265 267 268
272 272 271 269 268 267 266 267 267 266 264 262 259 258 257 257 256 257 258 259 259 260 260 260 259 260 261 262 263 263 262 262 262 263 264 264 263 263 264 266 266 267 268
271 270 269 269 267 267 268 269 268 266 265 262 261 259 258 257 258 258 257 258 260 260 260 259 259 259 261 262 263 264 263 263 264 265 265 265 264 264 265 266 267 268 269
270 269 269 268 267 268 269 270 269 267 265 263 262 261 260 259 258 258 257 257 258 259 258 258 259 260 260 262 263 264 264 264 265 266 266 265 265 265 266 267 268 269 270
271 271 270 269 269 270 271 271 270 268 266 265 263 262 262 260 259 258 258 258 259 260 260 260 260 261 261 263 264 264 264 265 265 265 265 265 265 266 267 268 269 270 270
271 272 272 271 271 271 271 271 270 268 265 264 264 263 262 261 261 260 260 259 260 261 261 261 262 262 263 264 265 265 265 264 264 264 265 265 266 267 268 269 270 270 270
273 273 273 272 271 271 271 270 268 267 265 263 263 263 263 262 261 261 262 262 262 262 263 263 262 263 264 265 265 265 265 265 265 266 266 267 267 268 269 270 271 270 271
275 275 274 273 272 271 270 269 268 266 265 264 264 264 263 263 262 262 262 262 263 263 263 263 264 265 265 265 265 265 265 266 267 267 267 268 268 269 269 270 271 272 273
275 276 275 273 272 271 270 269 269 267 265 265 265 264 264 263 262 262 262 263 263 262 263 264 265 265 266 266 266 266 266 266 266 268 269 269 270 271 271 271 272 273 274
274 274 274 274 273 272 271 270 270 268 266 265 264 264 264 263 263 263 263 264 264 263 264 264 265 265 266 266 266 266 267 268 269 270 270 271 272 274 274 274 274 274 274
273 273 273 273 273 272 271 271 269 268 267 266 266 266 265 265 264 265 265 264 265 265 265 265 265 266 266 267 268 268 268 269 270 272 273 273 274 275 276 276 276 276 276
273 272 272 272 272 271 270 270 269 269 268 268 267 267 267 266 266 266 266 266 266 266 266 266 266 266 266 267 268 269 270 271 272 274 275 275 276 277 277 277 278 278 278
273 273 272 271 271 270 270 270 269 269 269 269 267 267 267 268 268 268 268 267 267 267 267 267 267 266 267 267 269 270 272 273 275 276 276 277 278 278 278 278 278 278 278
Height
5600 5603 5605 5608 5611 5614 5616 5619 5621 5624 5627 5630 5633 5636 5639 5641 5644 5647 5650 5652 5655 5657 5659 5662 5664 5665 5667 5669 5670 5671 5672 5673 5675 5677 5677 5677 5677 5678 5679 5679 5679 5680 5680
5588 5590 5593 5596 5598 5601 5604 5606 5609 5612 5614 5617 5620 5623 5626 5629 5631 5634 5636 5639 5641 5644 5646 5648 5650 5652 5653 5655 5656 5657 5658 5659 5660 5662 5663 5664 5664 5665 5665 5666 5666 5666 5667
5576 5578 5581 5583 5585 5588 5591 5594 5596 5599 5601 5604 5607 5610 5613 5615 5618 5620 5622 5625 5627 5630 5632 5634 5636 5638 5639 5640 5642 5643 5644 5645 5646 5647 5649 5650 5651 5651 5651 5652 5652 5653 5653
5564 5566 5569 5571 5573 5576 5578 5581 5583 5585 5588 5591 5593 5596 5599 5601 5603 5606 5608 5611 5613 5615 5617 5619 5621 5623 5625 5626 5627 5628 5629 5630 5631 5632 5634 5635 5636 5637 5637 5638 5638 5639 5639
5553 5555 5557 5559 5561 5563 5565 5568 5570 5572 5574 5577 5579 5582 5584 5587 5589 5591 5594 5596 5598 5600 5602 5604 5606 5608 5609 5610 5612 5613 5614 5615 5616 5618 5619 5620 5621 5622 5623 5623 5623 5624 5624
5542 5543 5545 5546 5548 5550 5552 5554 5556 5558 5560 5562 5565 5567 5569 5572 5574 5576 5578 5581 5583 5585 5587 5589 5591 5592 5594 5595 5596 5598 5599 5600 5602 5603 5604 5605 5606 5607 5607 5608 5608 5609 5610
5530 5531 5533 5534 5535 5537 5538 5540 5542 5544 5546 5548 5550 5552 5555 5557 5559 5561 5563 5565 5567 5569 5571 5573 5575 5577 5578 5579 5580 5582 5583 5585 5587 5588 5589 5590 5591 5592 5592 5593 5593 5594 5595
5520 5520 5521 5522 5523 5524 5524 5526 5528 5530 5532 5534 5536 5538 5540 5542 5544 5546 5547 5549 5551 5553 5555 5557 5559 5560 5562 5563 5565 5566 5568 5569 5571 5572 5574 5575 5575 5576 5577 5578 5578 5579 5580
5509 5509 5509 5509 5510 5511 5511 5512 5514 5515 5517 5519 5521 5523 5526 5528 5529 5531 5532 5533 5535 5538 5539 5541 5542 5544 5546 5548 5549 5551 5552 5553 5554 5556 5557 5558 5559 5560 5561 5562 5563 5564 5565
5498 5498 5498 5497 5498 5498 5499 5499 5500 5501 5503 5504 5507 5509 5511 5513 5515 5516 5517 5519 5521 5523 5524 5526 5527 5529 5530 5531 5533 5534 5536 5538 5539 5540 5541 5542 5544 5545 5546 5547 5548 5549 5549
5487 5486 5486 5485 5485 5485 5485 5485 5486 5487 5489 5491 5493 5494 5496 5498 5500 5502 5503 5505 5506 5508 5509 5511 5512 5513 5514 5516 5517 5519 5520 5521 5522 5524 5525 5526 5528 5529 5531 5532 5533 5534 5534
5475 5475 5474 5473 5472 5472 5472 5472 5473 5474 5475 5477 5478 5480 5482 5484 5486 5488 5490 5491 5492 5494 5495 5497 5498 5499 5500 5501 5502 5504 5505 5505 5507 5508 5510 5511 5513 5514 5516 5517 5517 5518 5519
5464 5463 5462 5462 5461 5460 5460 5460 5461 5461 5462 5464 5465 5467 5469 5471 5473 5475 5476 5478 5479 5480 5481 5483 5484 5485 5486 5487 5488 5489 5490 5491 5492 5493 5495 5496 5498 5499 5500 5501 5502 5502 5503
5454 5453 5452 5451 5450 5449 5449 5449 5449 5449 5450 5451 5452 5454 5456 5458 5460 5462 5463 5465 5466 5467 5468 5469 5470 5471 5472 5474 5475 5475 5476 5477 5477 5479 5480 5481 5482 5483 5484 5485 5486 5487 5487
5444 5443 5442 5441 5440 5439 5439 5439 5438 5438 5438 5439 5441 5442 5444 5445 5448 5449 5450 5452 5453 5455 5455 5456 5457 5458 5459 5460 5461 5462 5462 5463 5464 5465 5466 5467 5468 5468 5469 5470 5471 5471 5471
5434 5433 5432 5431 5430 5430 5429 5429 5428 5428 5428 5428 5429 5430 5431 5433 5434 5436 5438 5439 5440 5441 5442 5443 5444 5445 5446 5447 5448 5448 5449 5450 5450 5451 5452 5452 5453 5454 5455 5455 5455 5455 5456
5425 5424 5423 5422 5421 5420 5419 5418 5418 5417 5416 5417 5417 5418 5420 5421 5422 5424 5425 5427 5428 5428 5429 5431 5432 5433 5434 5434 5435 5435 5436 5436 5437 5438 5438 5439 5439 5439 5440 5440 5440 5440 5441
5416 5415 5414 5413 5412 5410 5409 5408 5407 5406 5406 5406 5406 5407 5408 5409 5410 5412 5413 5414 5416 5417 5417 5418 5419 5420 5421 5422 5422 5422 5423 5423 5424 5424 5425 5425 5426 5426 5426 5426 5426 5426 5426
5407 5406 5404 5403 5402 5401 5399 5398 5396 5395 5395 5396 5396 5396 5397 5398 5399 5400 5401 5403 5404 5405 5406 5406 5407 5408 5408 5409 5409 5410 5410 5410 5411 5411 5412 5412 5413 5413 5413 5412 5412 5412 5412
5397 5396 5394 5393 5392 5390 5389 5387 5386 5385 5385 5385 5386 5386 5387 5387 5388 5389 5390 5391 5392 5393 5394 5394 5395 5396 5396 5397 5397 5397 5398 5398 5398 5399 5399 5399 5399 5399 5399 5399 5398 5398 5398
5386 5385 5384 5382 5381 5380 5379 5378 5377 5376 5376 5376 5376 5376 5376 5377 5377 5378 5379 5379 5380 5381 5382 5383 5383 5384 5384 5385 5385 5385 5386 5386 5386 5386 5386 5386 5386 5386 5386 5385 5385 5384 5384
5377 5375 5374 5372 5371 5370 5369 5368 5367 5367 5366 5366 5366 5366 5366 5366 5367 5367 5368 5369 5369 5370 5371 5371 5372 5372 5373 5373 5373 5373 5373 5374 5374 5374 5373 5373 5373 5373 5372 5371 5371 5370 5369
5367 5366 5365 5363 5362 5361 5360 5359 5358 5357 5357 5357 5357 5357 5357 5357 5357 5358 5358 5359 5359 5360 5360 5361 5361 5361 5361 5361 5362 5362 5362 5362 5362 5361 5361 5361 5360 5359 5358 5358 5357 5356 5355
5358 5357 5356 5354 5353 5352 5351 5350 5349 5349 5348 5348 5348 5348 5348 5348 5348 5348 5349 5349 5349 5350 5350 5350 5350 5350 5351 5351 5350 5350 5350 5350 5349 5349 5348 5348 5347 5346 5345 5344 5342 5341 5340
5349 5348 5346 5345 5344 5343 5342 5342 5341 5340 5340 5340 5340 5339 5339 5339 5339 5339 5339 5340 5340 5340 5340 5340 5340 5340 5340 5340 5340 5339 5339 5338 5338 5337 5336 5335 5334 5333 5331 5330 5329 5327 5326
5339 5338 5337 5336 5335 5335 5334 5333 5333 5332 5331 5331 5330 5330 5330 5330 5330 5329 5329 5329 5329 5330 5329 5329 5329 5329 5329 5329 5329 5328 5328 5327 5325 5324 5323 5322 5321 5319 5318 5317 5315 5314 5312